Temp
97 97 97 96 95 97 96 95 94 94 94 93 93 94 94 94 93 92 91 90 89 89 89 89 89 90 89 89 89 90 90 90 89 89 89 89 90 89 89 90 89 88 90 89 88 87 87 89 89 89 88 87 87 86 85 85 85 85 85 84 84 84 84
96 98 100 98 97 97 96 95 95 95 94 94 93 92 94 93 92 93 91 91 90 90 90 90 89 90 90 89 90 90 89 90 90 89 90 89 89 89 90 89 89 88 88 89 89 88 88 90 89 88 88 88 87 86 86 85 84 84 85 84 83 83 83
98 97 98 97 97 98 96 97 95 95 95 95 95 95 94 92 92 92 92 91 90 90 91 90 90 90 90 90 90 89 90 90 90 90 89 90 90 91 90 89 89 89 89 89 89 89 89 89 88 88 88 87 87 86 85 85 84 84 84 84 83 83 82
97 96 98 98 99 97 97 97 96 97 98 98 96 96 94 92 93 93 93 93 91 90 89 91 91 91 91 90 89 89 89 90 90 90 91 91 90 90 90 89 88 89 89 89 90 90 89 88 88 87 87 86 86 86 85 84 85 84 83 83 83 83 82
100 100 97 96 99 98 97 98 97 96 98 100 98 95 95 95 95 95 95 94 95 92 93 93 94 92 91 91 91 91 90 90 90 91 91 91 91 90 90 90 89 90 90 90 89 88 87 87 87 87 86 85 86 85 84 84 84 83 81 81 81 82 83
100 98 95 97 101 99 98 99 100 100 100 100 98 96 97 98 98 98 97 94 94 95 93 93 92 91 91 92 92 92 91 90 90 90 90 91 90 90 90 90 90 90 91 89 90 88 88 87 87 87 86 87 86 86 86 84 84 84 82 80 79 80 81
101 98 97 97 99 100 100 100 101 101 101 101 101 99 99 100 99 99 99 97 97 94 95 95 95 94 91 92 91 91 90 91 90 91 91 91 91 90 90 89 90 90 90 89 88 88 87 87 86 86 86 86 85 84 82 81 81 82 82 80 78 79 80
102 101 99 99 101 103 102 100 101 102 101 101 102 101 100 100 100 100 99 100 99 99 98 98 96 93 91 92 92 91 91 91 92 91 91 91 90 90 90 90 89 89 89 89 88 88 88 86 87 86 85 86 84 83 83 82 82 83 81 80 79 79 81
104 101 101 102 102 104 103 101 100 100 98 98 99 98 99 100 100 100 100 101 100 100 99 100 99 97 92 92 91 91 91 92 91 91 90 90 91 92 91 91 90 89 88 88 90 88 87 86 86 85 84 84 84 83 83 82 82 81 80 79 79 78 80
101 99 99 101 101 101 102 102 100 98 97 96 96 96 97 99 99 100 101 102 103 102 101 101 102 99 95 92 92 92 91 91 91 92 92 92 91 91 92 92 91 89 87 88 91 88 86 85 84 84 83 82 82 82 82 82 82 81 80 80 79 78 79
100 98 99 100 99 100 101 101 98 95 95 94 94 99 96 97 99 101 101 103 104 103 104 102 102 102 97 95 95 94 91 92 93 92 91 91 93 93 93 93 93 90 89 89 90 87 85 83 83 82 82 81 81 81 80 80 80 79 80 80 80 80 80
95 97 95 96 96 98 98 96 96 95 95 94 96 98 95 95 99 102 101 102 105 104 103 103 104 103 99 96 95 92 92 92 92 92 91 91 92 93 94 93 91 90 91 91 89 85 84 81 81 80 80 80 80 80 80 79 79 79 79 81 82 81 81
96 95 94 96 94 96 95 94 94 94 94 97 98 98 98 98 99 101 98 100 104 104 104 102 102 99 99 98 97 93 92 92 91 90 91 91 91 91 92 93 92 93 92 91 89 86 83 82 81 81 81 80 80 80 80 80 80 79 79 80 81 81 81
93 96 95 94 94 93 93 93 94 94 93 95 96 96 97 98 100 99 99 100 102 105 106 104 101 99 97 95 94 92 93 92 90 90 89 89 88 89 91 90 89 90 89 89 86 85 84 83 82 81 82 81 81 81 81 80 80 79 79 80 81 81 81
97 97 95 95 92 92 92 92 92 93 93 94 95 95 96 97 98 98 98 100 100 105 104 102 99 98 99 96 94 92 91 91 90 89 88 88 88 88 88 88 87 87 87 86 85 85 84 84 84 82 81 82 82 81 81 80 80 80 80 80 80 81 81
101 96 98 96 93 94 92 92 92 92 92 91 93 93 95 95 95 98 98 100 102 100 104 101 98 96 97 96 94 93 91 89 88 88 87 87 86 87 87 87 86 86 85 84 84 83 83 83 83 84 82 81 81 81 80 80 81 76 70 73 81 81 81
102 102 103 100 97 94 93 92 92 91 91 90 91 92 93 93 95 97 101 101 102 100 103 104 97 97 96 95 94 93 91 89 87 87 86 86 85 85 85 85 85 85 84 84 83 83 82 82 82 84 83 82 81 80 80 81 81 70 67 68 70 79 81
100 99 101 101 100 95 92 92 91 91 91 92 93 93 93 92 95 96 98 100 100 103 104 101 99 98 94 95 93 91 89 85 84 84 84 84 84 84 84 85 84 83 83 84 83 82 82 81 81 82 82 81 82 81 81 82 72 66 66 67 67 71 79
100 100 100 98 94 93 95 95 94 92 93 94 94 94 95 95 96 94 96 96 98 98 101 101 99 95 93 93 91 87 86 82 83 83 83 83 84 84 84 84 83 83 83 83 83 82 80 80 81 80 81 81 80 81 82 84 70 65 65 65 65 66 73
101 101 103 100 99 100 96 95 96 95 95 94 95 98 98 96 96 95 98 98 98 97 96 95 95 92 92 91 90 88 83 82 82 82 83 83 83 84 83 83 83 83 84 84 83 81 81 81 80 80 79 80 80 80 82 84 68 64 63 64 64 66 69
99 99 99 96 96 100 96 95 95 95 94 97 98 97 96 97 98 97 99 98 97 95 93 93 92 90 90 90 89 86 82 81 82 82 82 82 83 83 83 83 83 83 83 84 83 81 80 80 79 79 79 80 81 81 82 85 65 63 63 62 63 63 67
102 103 99 99 96 95 94 96 95 97 94 96 97 98 98 97 100 100 100 100 96 94 93 92 91 90 90 90 88 86 82 81 82 82 82 81 82 82 82 82 82 82 83 83 85 84 84 82 81 79 80 80 80 81 80 83 60 62 62 61 61 62 71
106 103 102 100 101 98 96 96 96 98 95 96 98 97 98 100 100 99 99 97 96 92 92 91 90 90 89 89 87 86 85 82 81 81 80 80 80 80 81 81 82 83 84 83 84 84 84 83 83 81 81 80 80 80 80 82 63 60 58 59 59 63 71
106 105 104 103 99 99 96 96 97 97 97 97 97 98 99 99 97 95 93 93 93 92 90 90 90 90 88 87 87 86 86 83 81 80 79 79 79 80 81 83 83 82 82 81 82 83 85 85 83 83 82 81 81 82 80 82 65 56 57 57 58 64 73
103 105 103 102 100 99 96 95 95 97 95 96 97 96 96 96 95 93 92 91 91 90 89 89 90 90 88 87 87 85 84 84 82 81 80 79 80 80 80 80 80 81 81 82 82 82 82 83 81 81 80 82 81 73 78 80 68 55 57 57 56 66 76
98 100 100 101 102 100 95 93 92 93 95 95 94 96 95 96 94 92 91 89 91 91 90 90 89 89 90 89 88 86 85 84 83 82 81 80 80 81 82 82 82 81 80 81 82 81 81 81 81 81 80 80 79 78 79 79 79 69 56 56 55 59 74
99 99 98 101 100 93 93 93 93 94 95 94 94 96 96 95 93 90 89 89 89 88 90 91 90 88 87 87 88 87 86 85 84 84 83 83 82 84 84 83 81 81 81 82 83 81 80 80 81 80 79 80 79 79 79 79 79 71 55 55 55 57 64
97 99 100 97 92 93 92 94 92 93 95 94 95 95 94 92 89 87 87 88 88 89 92 90 89 88 87 86 86 87 86 85 84 84 83 83 83 82 82 83 82 82 82 87 85 82 81 79 79 79 80 79 80 80 80 78 74 77 58 55 54 56 58
93 94 95 94 91 93 94 92 92 94 93 95 96 95 94 92 87 87 87 87 88 91 90 89 89 88 86 85 85 84 84 83 81 80 81 81 82 82 81 83 86 86 83 82 82 81 80 81 80 80 80 79 80 81 81 80 76 70 70 56 54 53 55
93 94 93 94 95 93 96 92 91 90 91 94 94 94 92 89 86 87 88 87 90 91 89 89 88 87 85 84 84 83 83 81 80 81 81 81 82 82 84 83 81 79 80 80 80 79 79 79 80 79 80 79 78 80 81 79 77 66 63 60 54 53 54
91 90 92 93 96 94 94 90 89 90 91 93 92 92 91 90 88 87 87 88 89 88 87 86 85 84 84 83 82 81 81 80 80 81 82 81 82 81 82 79 79 77 78 79 79 79 78 77 78 78 79 79 78 79 80 81 77 74 63 59 55 52 50
92 94 96 95 92 92 93 94 93 92 91 91 92 90 89 90 90 86 85 87 86 86 86 85 84 83 83 83 82 82 82 81 82 83 83 82 83 82 81 79 79 79 78 79 80 78 78 77 79 79 79 79 82 81 80 78 78 73 67 61 58 57 52
90 90 90 90 90 89 90 90 89 88 89 88 91 92 93 91 90 86 85 85 86 86 85 84 82 81 82 82 83 83 83 82 84 84 85 83 83 82 81 80 81 81 79 79 80 79 78 79 79 79 80 80 81 82 80 78 78 74 71 72 71 69 62
83 85 89 90 90 90 91 90 90 89 89 88 91 92 93 92 89 87 87 88 88 88 85 83 82 83 83 83 84 83 83 83 79 81 84 84 84 82 82 82 83 82 79 79 80 80 79 80 80 80 81 81 82 81 79 77 78 77 75 76 76 74 73
82 82 83 85 88 89 88 88 88 87 87 88 90 91 89 88 87 88 87 88 90 86 85 84 82 84 85 85 85 84 83 84 82 84 83 83 83 79 77 79 84 83 80 75 75 78 83 83 81 82 84 85 82 81 77 78 75 80 71 78 66 73 76
84 84 84 84 84 85 86 86 86 85 85 85 87 87 87 87 89 90 93 92 89 87 84 83 84 85 86 86 86 86 85 84 85 85 84 83 78 73 65 49 44 56 75 76 56 47 45 55 73 74 79 84 78 74 82 82 81 55 50 54 55 55 54
83 83 84 85 84 82 82 83 83 83 83 84 85 86 87 87 90 90 91 88 87 87 84 84 84 86 88 87 88 84 84 85 85 84 82 83 82 79 75 74 63 44 40 47 49 44 40 40 41 44 50 66 79 62 47 49 47 46 46 46 46 44 44
84 85 85 85 83 81 81 82 82 82 82 84 85 86 86 87 87 86 87 86 86 86 84 85 84 85 86 87 86 81 83 86 85 84 83 82 80 79 78 77 73 67 47 40 42 42 40 39 39 40 43 44 56 68 67 50 44 44 44 44 43 43 42
MSLP
1001.49 1001.77 1002.05 1002.57 1002.85 1002.17 1002.13 1002.33 1002.61 1003.09 1003.49 1003.93 1004.33 1004.73 1005.09 1005.41 1005.73 1006.09 1006.69 1007.09 1007.65 1008.09 1008.21 1008.45 1008.81 1009.05 1009.45 1009.73 1009.97 1010.21 1010.45 1010.85 1011.13 1011.53 1011.85 1012.09 1012.21 1012.49 1012.85 1012.97 1013.37 1013.61 1013.65 1014.09 1014.29 1014.53 1014.61 1014.37 1014.53 1014.81 1015.13 1015.45 1015.65 1015.89 1016.05 1016.17 1016.41 1016.53 1016.65 1016.73 1016.93 1017.13 1017.17
1001.65 1001.29 1001.21 1001.69 1002.05 1001.69 1001.49 1001.57 1002.01 1002.45 1002.85 1003.21 1003.73 1004.17 1004.41 1004.85 1005.25 1005.69 1006.13 1006.53 1006.97 1007.41 1007.69 1008.05 1008.45 1008.73 1009.01 1009.37 1009.57 1009.89 1010.29 1010.53 1010.81 1011.09 1011.37 1011.73 1011.93 1012.13 1012.29 1012.69 1013.05 1013.41 1013.53 1013.61 1013.85 1014.13 1014.29 1014.33 1014.45 1014.77 1015.05 1015.21 1015.53 1015.69 1015.89 1016.09 1016.25 1016.41 1016.53 1016.73 1017.01 1017.13 1017.21
1000.57 1000.97 1001.09 1001.29 1001.17 1001.17 1001.33 1001.41 1001.65 1001.81 1002.21 1002.61 1003.01 1003.45 1003.77 1004.13 1004.49 1005.01 1005.53 1006.05 1006.57 1006.93 1007.17 1007.57 1007.93 1008.29 1008.53 1008.89 1009.33 1009.65 1009.89 1010.21 1010.53 1010.89 1011.29 1011.53 1011.81 1011.89 1012.01 1012.33 1012.69 1012.97 1013.13 1013.25 1013.53 1013.85 1013.97 1014.13 1014.37 1014.53 1014.85 1015.13 1015.33 1015.57 1015.69 1015.93 1016.09 1016.25 1016.33 1016.49 1016.77 1016.97 1017.17
999.81 1000.37 1000.21 1000.01 999.89 1000.25 1000.49 1000.65 1000.97 1001.21 1001.41 1001.69 1002.13 1002.57 1003.09 1003.57 1003.89 1004.33 1004.73 1005.25 1006.01 1006.49 1006.93 1007.09 1007.45 1007.81 1008.13 1008.57 1009.01 1009.33 1009.65 1009.85 1010.09 1010.45 1010.73 1010.93 1011.33 1011.49 1011.81 1012.13 1012.41 1012.61 1012.97 1013.17 1013.25 1013.45 1013.77 1013.97 1014.33 1014.53 1014.77 1015.09 1015.29 1015.37 1015.49 1015.65 1015.81 1016.01 1016.13 1016.33 1016.57 1016.65 1016.81
998.97 999.89 1000.97 1001.09 999.81 999.97 1000.29 1000.41 1000.61 1000.85 1000.89 1001.01 1001.53 1002.05 1002.49 1002.93 1003.33 1003.85 1004.25 1004.61 1005.09 1005.81 1006.01 1006.41 1006.73 1007.17 1007.53 1007.89 1008.41 1008.73 1009.17 1009.49 1009.81 1010.01 1010.29 1010.49 1010.69 1011.05 1011.57 1011.93 1012.25 1012.49 1012.65 1012.89 1013.13 1013.53 1013.85 1014.05 1014.29 1014.49 1014.81 1015.01 1015.17 1015.17 1015.37 1015.41 1015.49 1015.73 1015.97 1016.17 1016.53 1016.53 1016.65
998.45 999.73 1001.01 1000.41 999.21 999.41 999.49 999.49 999.57 999.77 1000.09 1000.53 1001.05 1001.69 1002.05 1002.41 1002.81 1003.33 1003.69 1004.25 1004.69 1005.05 1005.49 1005.89 1006.37 1006.77 1007.33 1007.49 1007.85 1008.25 1008.57 1008.97 1009.29 1009.61 1009.93 1010.13 1010.49 1010.85 1011.29 1011.57 1011.93 1012.33 1012.77 1012.97 1013.09 1013.49 1013.69 1013.93 1014.01 1014.37 1014.65 1014.73 1014.81 1014.93 1014.97 1015.13 1015.17 1015.29 1015.65 1015.93 1016.33 1016.53 1016.65
997.29 998.57 999.41 999.97 999.25 998.81 998.93 999.05 999.09 999.29 999.49 999.73 1000.17 1000.77 1001.21 1001.65 1002.17 1002.61 1003.01 1003.65 1004.05 1004.77 1005.13 1005.49 1005.77 1006.21 1006.77 1007.01 1007.45 1007.85 1008.33 1008.65 1008.97 1009.29 1009.45 1009.81 1010.09 1010.65 1011.01 1011.49 1011.69 1012.01 1012.25 1012.61 1013.09 1013.21 1013.57 1013.77 1013.85 1014.01 1014.25 1014.37 1014.45 1014.57 1014.77 1014.89 1014.97 1014.93 1015.01 1015.33 1015.81 1016.17 1016.41
996.45 997.49 997.85 998.17 998.41 997.97 998.17 998.41 998.53 998.73 999.13 999.41 999.89 1000.37 1000.85 1000.93 1001.45 1002.01 1002.45 1002.73 1003.29 1003.77 1004.37 1004.77 1005.25 1005.65 1006.17 1006.57 1006.89 1007.41 1007.77 1008.09 1008.37 1008.81 1009.17 1009.65 1010.01 1010.53 1010.93 1011.29 1011.49 1011.57 1011.85 1012.37 1012.65 1012.85 1013.21 1013.53 1013.57 1013.69 1013.73 1013.77 1013.93 1014.21 1014.49 1014.77 1014.89 1014.81 1014.61 1014.57 1014.85 1015.37 1015.77
995.37 996.33 997.21 997.73 997.97 997.49 997.45 997.77 998.01 998.17 998.65 999.05 999.29 999.69 1000.21 1000.49 1000.77 1001.25 1001.73 1002.05 1002.49 1003.09 1003.53 1003.77 1004.37 1004.93 1005.57 1006.13 1006.57 1006.97 1007.25 1007.57 1008.05 1008.41 1008.89 1009.41 1009.73 1010.33 1010.69 1011.01 1011.13 1011.17 1011.65 1012.01 1012.13 1012.17 1012.49 1012.85 1012.89 1012.81 1012.85 1013.13 1013.45 1013.81 1014.25 1014.53 1014.81 1014.97 1015.09 1014.97 1014.77 1014.93 1015.17
995.77 996.65 996.81 997.05 997.65 997.89 997.13 997.21 997.69 998.09 998.49 998.81 999.05 999.53 999.97 1000.05 1000.29 1000.57 1000.97 1001.33 1001.73 1002.37 1002.73 1003.21 1003.65 1004.53 1005.17 1005.65 1006.05 1006.41 1006.89 1007.33 1007.57 1008.05 1008.49 1009.13 1009.45 1009.81 1010.05 1010.41 1010.77 1010.81 1011.09 1011.13 1011.09 1011.57 1011.73 1011.81 1011.85 1011.97 1012.33 1012.77 1013.13 1013.49 1013.77 1014.13 1014.45 1014.81 1015.09 1015.25 1015.09 1014.85 1014.97
996.33 996.61 996.69 997.13 997.41 997.17 997.01 997.17 997.61 998.01 998.09 998.45 998.73 998.93 999.49 999.77 999.89 1000.13 1000.49 1000.73 1001.09 1001.65 1002.01 1002.53 1002.77 1003.37 1004.41 1005.05 1005.61 1005.93 1006.41 1006.85 1007.17 1007.77 1008.37 1008.69 1008.77 1009.21 1009.49 1009.81 1009.97 1010.13 1010.29 1010.33 1010.33 1010.53 1010.73 1010.89 1010.93 1011.33 1011.69 1012.13 1012.69 1013.21 1013.61 1013.93 1014.21 1014.53 1014.77 1015.05 1015.01 1014.69 1014.69
996.53 996.57 997.25 997.53 997.57 997.49 997.49 997.41 997.53 997.93 998.05 998.29 998.49 998.69 999.13 999.45 999.49 999.61 999.93 1000.21 1000.25 1000.81 1001.49 1002.05 1002.29 1002.81 1003.69 1004.45 1005.01 1005.45 1005.93 1006.37 1006.81 1007.41 1007.85 1007.93 1008.17 1008.41 1008.57 1008.73 1008.97 1009.33 1009.41 1009.37 1009.53 1009.69 1009.61 1009.81 1010.21 1010.65 1011.41 1011.85 1012.29 1012.77 1013.21 1013.57 1013.93 1014.29 1014.57 1014.81 1014.85 1014.65 1014.41
996.69 997.17 997.65 997.81 997.85 997.53 997.45 997.61 997.69 997.73 997.89 997.93 998.13 998.33 998.65 999.01 999.25 999.21 999.61 999.93 999.85 999.97 1000.69 1001.17 1001.69 1002.17 1002.93 1003.73 1004.29 1004.89 1005.45 1005.93 1006.41 1006.77 1006.89 1007.09 1007.45 1007.61 1007.77 1007.97 1008.25 1008.41 1008.61 1008.53 1008.69 1009.01 1009.25 1009.69 1010.41 1010.85 1011.29 1011.65 1012.01 1012.49 1012.89 1013.29 1013.65 1013.97 1014.25 1014.37 1014.37 1014.41 1014.29
996.57 997.05 997.13 997.33 997.57 997.81 997.93 997.81 997.81 997.89 998.01 998.01 998.09 998.17 998.45 998.57 998.69 998.85 999.21 999.69 999.65 999.61 1000.01 1000.49 1001.13 1001.85 1002.49 1003.17 1003.89 1004.49 1005.05 1005.49 1005.77 1005.81 1005.97 1006.17 1006.61 1007.09 1007.21 1007.53 1007.77 1007.81 1007.93 1008.05 1008.41 1008.57 1009.01 1009.69 1010.09 1010.49 1010.81 1011.25 1011.65 1012.05 1012.49 1012.97 1013.33 1013.53 1013.81 1013.89 1013.93 1014.05 1014.05
996.69 996.77 996.97 997.29 997.49 997.53 997.69 997.81 997.69 997.85 997.97 998.01 998.09 998.37 998.49 998.57 998.65 998.69 998.85 999.05 999.33 999.33 999.61 999.97 1000.85 1001.53 1002.09 1002.81 1003.57 1004.05 1004.49 1004.93 1005.21 1005.21 1005.49 1005.89 1006.33 1006.73 1006.97 1007.09 1007.17 1007.33 1007.53 1007.73 1007.93 1008.21 1008.57 1008.97 1009.45 1010.09 1010.61 1010.93 1011.33 1011.77 1012.17 1012.61 1012.85 1012.97 1013.25 1013.49 1013.57 1013.61 1013.77
995.73 997.05 996.65 996.81 997.13 997.09 997.41 997.45 997.53 997.69 997.97 998.21 998.21 998.33 998.41 998.53 998.57 998.61 998.85 999.05 999.13 999.33 999.25 999.69 1000.57 1001.29 1001.77 1002.37 1003.01 1003.45 1003.97 1004.45 1004.89 1005.13 1005.49 1005.85 1006.05 1006.09 1006.21 1006.49 1006.69 1006.93 1007.25 1007.45 1007.73 1008.05 1008.45 1008.89 1009.33 1009.69 1010.17 1010.69 1011.17 1011.57 1011.89 1012.13 1012.17 1012.37 1012.73 1012.89 1013.01 1013.25 1013.37
994.69 994.53 994.45 995.09 995.81 996.69 996.93 997.33 997.41 997.61 997.97 998.21 998.09 998.05 998.17 998.29 998.37 998.41 998.49 998.65 998.81 999.13 999.01 999.41 1000.41 1001.01 1001.53 1002.09 1002.45 1003.05 1003.61 1004.29 1004.89 1005.25 1005.69 1005.69 1005.85 1006.05 1006.25 1006.41 1006.49 1006.77 1007.09 1007.41 1007.77 1008.13 1008.49 1008.85 1009.25 1009.45 1009.85 1010.33 1010.89 1011.33 1011.53 1011.57 1011.61 1011.97 1012.41 1012.69 1012.81 1012.97 1013.17
994.45 994.49 994.45 994.69 995.05 996.13 996.93 997.29 997.41 997.49 997.61 997.77 997.77 997.89 997.97 998.17 998.17 998.29 998.41 998.41 998.57 998.61 998.61 999.33 1000.05 1000.77 1001.37 1001.65 1002.25 1002.93 1003.53 1004.45 1004.89 1005.29 1005.53 1005.73 1006.01 1006.13 1006.21 1006.33 1006.65 1007.05 1007.33 1007.61 1007.93 1008.21 1008.45 1008.89 1009.13 1009.33 1009.61 1010.09 1010.53 1010.93 1011.05 1011.13 1011.25 1011.69 1012.09 1012.41 1012.69 1012.85 1012.97
994.25 994.33 994.17 994.53 995.37 995.77 996.21 996.57 996.73 996.85 996.85 997.05 997.37 997.49 997.41 997.53 997.89 998.21 998.01 998.25 998.17 998.25 998.53 999.17 999.89 1000.65 1001.29 1001.61 1002.29 1003.09 1003.65 1004.37 1004.81 1005.17 1005.41 1005.57 1005.77 1005.97 1006.17 1006.53 1006.85 1007.13 1007.37 1007.69 1007.85 1008.13 1008.57 1008.85 1009.09 1009.37 1009.49 1009.81 1010.25 1010.49 1010.57 1010.65 1010.85 1011.37 1011.81 1012.17 1012.45 1012.73 1012.89
993.65 993.77 993.49 994.13 994.37 994.61 995.29 995.61 995.73 995.93 996.13 996.21 996.21 996.37 996.57 996.81 997.25 997.41 997.25 997.53 997.81 998.33 998.61 999.25 999.85 1000.57 1001.13 1001.53 1001.97 1002.73 1003.61 1004.13 1004.53 1005.01 1005.29 1005.45 1005.61 1005.77 1006.09 1006.41 1006.73 1006.89 1007.09 1007.37 1007.69 1008.13 1008.49 1008.69 1008.97 1009.17 1009.37 1009.53 1009.85 1010.09 1010.13 1010.29 1010.57 1011.05 1011.49 1011.89 1012.29 1012.61 1012.85
993.13 993.41 993.69 993.97 994.13 994.25 994.85 995.21 995.29 995.37 995.77 995.85 995.69 995.85 996.25 996.73 996.77 997.01 997.01 997.21 997.85 998.17 998.65 999.17 999.81 1000.61 1001.01 1001.41 1001.93 1002.73 1003.65 1004.13 1004.49 1004.97 1005.41 1005.53 1005.65 1005.85 1006.09 1006.29 1006.57 1006.85 1007.05 1007.21 1007.53 1007.93 1008.29 1008.49 1008.81 1008.93 1009.13 1009.41 1009.65 1009.97 1010.17 1010.01 1010.37 1010.77 1011.17 1011.57 1012.01 1012.33 1012.73
992.21 992.53 993.49 993.41 993.77 994.01 994.45 994.77 994.77 994.73 995.05 994.85 995.13 995.49 995.69 996.09 996.09 996.61 996.85 996.89 997.65 998.17 998.57 999.13 999.77 1000.49 1000.89 1001.45 1002.17 1002.77 1003.53 1004.13 1004.65 1004.89 1005.33 1005.65 1005.77 1006.01 1006.25 1006.33 1006.49 1006.73 1006.81 1007.01 1007.09 1007.29 1007.61 1008.09 1008.37 1008.85 1009.13 1009.33 1009.61 1009.89 1010.13 1009.89 1010.37 1010.73 1011.01 1011.37 1011.93 1012.49 1012.69
991.21 991.81 992.33 992.57 992.89 993.45 993.49 993.65 993.93 993.81 994.25 994.49 994.73 995.13 995.37 995.33 995.65 996.21 996.65 997.17 997.57 998.13 998.69 999.21 999.93 1000.53 1000.89 1001.41 1001.97 1002.49 1003.01 1003.85 1004.57 1005.05 1005.49 1005.65 1005.89 1006.05 1006.13 1006.29 1006.41 1006.49 1006.49 1006.97 1007.09 1007.33 1007.57 1007.93 1008.25 1008.53 1008.85 1009.17 1009.37 1009.69 1009.89 1009.77 1010.33 1010.69 1011.13 1011.49 1011.85 1012.25 1012.45
990.73 991.05 991.45 991.93 992.21 992.61 993.13 993.25 993.33 993.37 993.81 994.13 994.37 994.57 994.73 995.13 995.53 996.13 996.97 997.49 997.93 998.45 999.01 999.45 999.93 1000.17 1000.65 1001.25 1001.61 1002.05 1002.53 1003.37 1004.17 1004.93 1005.41 1005.61 1005.89 1006.05 1006.09 1006.13 1006.17 1006.49 1006.57 1007.01 1007.13 1007.21 1007.25 1007.41 1007.77 1007.97 1008.21 1008.61 1008.93 1009.09 1009.57 1009.65 1010.21 1010.61 1010.89 1011.17 1011.41 1011.73 1011.97
991.05 990.97 991.09 991.37 991.93 992.53 992.97 993.21 993.21 993.37 993.69 993.97 994.41 994.33 994.53 995.05 995.57 996.33 997.17 997.57 998.09 998.53 999.17 999.57 999.93 1000.25 1000.85 1001.29 1001.61 1002.13 1002.53 1003.01 1003.65 1004.37 1004.93 1005.33 1005.57 1005.81 1006.13 1006.25 1006.37 1006.41 1006.49 1006.69 1006.93 1007.17 1007.25 1007.45 1007.77 1007.97 1008.13 1008.25 1008.61 1008.89 1009.33 1009.53 1010.21 1010.61 1010.69 1010.89 1011.21 1011.53 1011.49
991.41 991.17 991.21 991.09 991.21 991.57 992.37 992.93 993.37 993.77 993.89 994.09 994.33 994.21 994.37 994.73 995.53 996.41 997.05 997.65 997.89 998.53 999.09 999.29 999.57 999.97 1000.45 1000.85 1001.37 1001.93 1002.45 1002.77 1003.33 1003.81 1004.37 1004.93 1005.17 1005.29 1005.53 1005.69 1005.97 1006.29 1006.61 1006.81 1006.93 1007.21 1007.41 1007.65 1007.81 1008.09 1008.25 1008.37 1008.69 1009.05 1009.21 1009.33 1009.49 1010.05 1010.53 1010.81 1011.09 1011.29 1011.25
990.93 990.97 991.25 991.09 991.29 991.65 992.65 993.09 993.33 993.69 993.61 993.77 993.81 993.93 994.17 994.69 995.73 996.65 997.17 997.49 997.93 998.53 998.69 998.85 999.29 999.97 1000.49 1000.85 1001.21 1001.69 1002.17 1002.53 1003.01 1003.45 1003.85 1004.25 1004.73 1004.85 1005.13 1005.41 1005.89 1006.17 1006.53 1006.77 1006.81 1007.13 1007.49 1007.73 1007.81 1008.05 1008.29 1008.41 1008.61 1008.81 1009.01 1009.09 1009.33 1009.85 1010.33 1010.69 1011.05 1011.33 1011.33
991.05 990.97 990.81 990.81 991.45 992.13 992.85 993.17 993.65 993.77 993.73 993.61 993.81 994.09 994.57 995.09 996.01 996.77 997.17 997.53 998.09 998.21 998.13 998.65 999.21 999.77 1000.37 1000.89 1001.29 1001.65 1002.05 1002.37 1002.73 1003.05 1003.57 1004.09 1004.53 1004.93 1005.17 1005.25 1005.57 1005.93 1006.25 1005.89 1006.09 1006.65 1007.13 1007.53 1007.73 1007.97 1008.05 1008.21 1008.33 1008.37 1008.49 1008.65 1009.01 1009.45 1010.17 1010.57 1010.85 1010.97 1011.05
991.61 991.65 991.57 991.77 992.41 992.33 992.61 993.25 993.65 993.61 993.81 993.77 993.97 994.49 994.97 995.61 996.57 996.93 997.17 997.73 997.81 997.57 997.97 998.53 999.01 999.57 1000.13 1000.73 1001.17 1001.69 1002.09 1002.37 1002.69 1003.09 1003.37 1004.05 1004.49 1004.85 1005.29 1005.01 1004.81 1005.13 1005.81 1006.25 1006.53 1006.93 1007.33 1007.33 1007.49 1007.73 1007.97 1008.17 1008.13 1008.09 1008.13 1008.29 1008.77 1008.93 1009.53 1010.21 1010.53 1010.85 1011.13
991.49 991.45 991.97 992.05 992.13 992.37 992.37 993.01 993.37 993.93 994.09 994.01 994.33 994.73 995.13 995.81 996.73 997.17 997.57 997.97 997.45 997.61 998.17 998.73 999.21 999.69 1000.25 1000.73 1001.17 1001.65 1002.17 1002.57 1002.93 1003.01 1003.25 1003.77 1004.25 1004.61 1004.49 1004.93 1005.53 1006.09 1006.45 1006.65 1006.89 1007.25 1007.53 1007.65 1007.65 1007.85 1007.97 1008.21 1008.25 1008.09 1008.05 1008.29 1008.77 1009.25 1009.45 1010.09 1010.53 1010.77 1010.93
992.25 992.41 992.21 992.05 992.01 992.09 992.61 993.41 993.85 993.93 994.09 994.13 994.37 994.69 995.33 995.97 996.81 997.41 997.85 997.73 997.57 998.21 998.69 999.21 999.73 1000.37 1000.89 1001.29 1001.69 1002.13 1002.33 1002.61 1002.77 1002.89 1003.05 1003.45 1003.85 1004.33 1004.57 1005.37 1005.77 1006.41 1006.53 1006.65 1006.89 1007.09 1007.53 1007.73 1007.73 1007.97 1007.81 1007.77 1007.93 1007.97 1007.97 1008.17 1008.65 1009.33 1010.05 1010.33 1010.65 1010.85 1011.09
992.01 991.69 991.73 992.09 992.61 992.97 993.13 993.33 993.57 993.85 994.25 994.57 994.81 995.37 995.85 996.29 996.73 997.73 998.05 997.81 998.05 998.37 998.89 999.49 1000.17 1000.77 1001.13 1001.41 1001.85 1002.21 1002.45 1002.77 1002.77 1002.77 1002.93 1003.21 1003.25 1003.85 1004.49 1005.21 1005.65 1006.01 1006.37 1006.45 1006.65 1006.97 1007.37 1007.57 1007.45 1007.61 1007.69 1007.77 1007.53 1007.57 1007.89 1008.29 1008.57 1009.37 1010.21 1010.77 1011.05 1011.21 1011.49
992.57 992.65 993.01 993.33 993.37 993.49 993.81 994.05 994.49 994.85 995.05 995.53 995.49 995.69 996.09 996.53 996.97 997.57 997.85 998.25 998.37 998.69 999.17 999.85 1000.49 1001.05 1001.37 1001.69 1001.93 1002.13 1002.29 1002.53 1002.57 1002.77 1002.93 1003.25 1003.45 1003.89 1004.41 1004.81 1005.13 1005.53 1006.01 1006.17 1006.41 1006.81 1007.13 1007.29 1007.37 1007.45 1007.49 1007.61 1007.49 1007.49 1007.81 1008.33 1008.53 1009.25 1009.81 1010.05 1010.37 1010.77 1011.41
994.17 993.93 993.41 993.21 993.45 993.69 993.97 994.25 994.69 995.09 995.41 995.81 995.73 995.81 996.13 996.69 997.21 997.61 997.85 998.09 998.33 998.73 999.29 1000.01 1000.57 1001.01 1001.37 1001.61 1001.77 1002.09 1002.29 1002.65 1002.81 1002.93 1003.13 1003.49 1003.65 1003.97 1004.21 1004.49 1004.69 1005.21 1005.77 1005.93 1005.97 1006.33 1006.85 1007.01 1007.01 1007.05 1007.01 1007.25 1007.29 1007.45 1007.93 1008.41 1008.57 1008.77 1009.21 1009.29 1009.57 1009.93 1010.29
994.61 994.57 994.49 994.53 994.33 994.21 994.65 994.89 995.33 995.77 996.05 996.21 996.01 996.13 996.57 997.05 997.45 997.69 998.05 998.25 998.41 998.97 999.65 1000.25 1000.57 1000.73 1001.05 1001.29 1001.49 1001.93 1002.21 1002.57 1003.01 1002.97 1003.33 1003.61 1003.65 1004.13 1004.45 1004.61 1004.41 1004.57 1005.25 1005.85 1006.01 1006.17 1006.33 1006.49 1006.73 1006.69 1006.53 1006.69 1006.97 1007.41 1008.33 1008.49 1008.77 1008.41 1008.01 1008.37 1008.81 1009.21 1009.69
994.93 994.93 995.01 994.97 995.05 995.17 995.29 995.49 995.89 996.33 996.61 996.73 996.65 996.93 997.25 997.49 997.53 997.57 997.69 997.97 998.57 999.17 999.85 1000.29 1000.49 1000.77 1000.97 1001.01 1001.33 1001.77 1002.25 1002.61 1002.89 1002.89 1003.21 1003.49 1004.25 1004.89 1005.77 1006.37 1006.13 1005.81 1005.53 1006.21 1007.01 1007.09 1007.21 1007.05 1007.21 1007.41 1007.09 1006.57 1006.93 1007.37 1007.41 1007.89 1007.85 1008.01 1008.37 1008.73 1009.09 1009.41 1009.57
995.61 995.53 995.53 995.41 995.73 996.09 996.29 996.45 996.53 996.73 997.05 997.09 997.01 997.21 997.41 997.53 997.45 997.41 997.57 998.09 998.57 999.09 999.73 1000.05 1000.45 1000.61 1000.69 1001.01 1001.37 1001.85 1002.21 1002.45 1002.57 1002.89 1003.25 1003.37 1004.01 1004.49 1005.09 1005.61 1006.49 1007.05 1007.29 1007.37 1007.53 1007.57 1007.69 1007.89 1007.97 1007.85 1007.69 1007.45 1007.33 1008.09 1008.13 1008.01 1008.17 1008.33 1008.69 1009.09 1009.41 1009.73 1009.93
995.89 995.73 995.73 995.89 996.21 996.57 996.77 996.97 997.09 997.25 997.45 997.33 997.41 997.57 997.65 997.81 997.81 997.93 998.17 998.37 998.65 999.05 999.61 999.93 1000.37 1000.61 1000.77 1001.09 1001.41 1001.97 1002.13 1002.21 1002.49 1002.85 1003.37 1003.57 1004.01 1004.53 1004.85 1005.21 1005.89 1006.73 1007.53 1007.85 1007.85 1007.97 1008.17 1008.29 1008.25 1008.17 1008.05 1007.89 1007.77 1007.89 1008.65 1009.05 1008.97 1008.97 1009.21 1009.53 1009.81 1010.01 1010.17
Wind_Speed
21 18 18 16 19 21 22 23 23 22 21 21 21 23 22 20 19 17 17 18 19 19 19 18 17 16 17 15 15 13 13 12 11 10 10 9 8 8 9 8 8 7 6 6 6 6 6 6 6 6 6 6 6 6 6 6 5 5 4 4 3 2 3
14 14 16 19 22 22 23 23 23 21 21 21 21 23 21 22 19 19 18 18 20 20 19 19 18 17 16 15 14 14 14 14 12 10 9 8 8 8 8 8 7 7 7 6 6 6 7 7 7 7 7 7 7 7 7 6 6 6 5 5 4 4 4
15 14 18 19 22 20 21 21 22 22 22 21 22 22 22 21 21 21 19 19 20 20 19 19 19 17 16 15 15 16 15 14 13 13 12 11 12 12 10 8 8 8 8 8 7 7 8 8 8 7 8 7 8 8 7 8 7 7 6 6 6 5 5
14 19 20 22 21 20 22 22 24 23 22 23 24 24 23 22 21 20 20 20 21 20 20 20 19 18 17 16 16 15 15 15 14 13 13 12 12 11 10 9 9 9 8 9 8 7 8 8 9 8 9 7 8 8 8 8 8 8 7 6 6 6 6
12 11 10 17 21 20 20 21 22 23 24 24 23 21 22 22 22 20 20 20 21 21 21 20 18 17 15 16 13 13 15 16 15 14 13 12 12 11 11 12 11 10 8 8 7 7 8 8 9 8 8 8 8 8 9 9 9 8 6 6 5 6 6
14 12 14 18 18 19 20 23 25 26 26 25 24 23 22 24 22 24 22 21 20 20 18 19 18 17 17 17 15 14 14 15 14 14 14 13 12 12 12 12 11 10 10 8 8 8 9 9 9 9 10 10 10 10 10 10 10 9 8 6 5 5 6
10 14 16 15 17 18 20 21 23 24 24 23 23 22 22 23 24 23 21 22 22 21 21 21 20 18 16 16 16 16 17 16 16 17 15 15 14 12 11 10 10 10 9 9 8 9 9 9 9 10 10 11 10 10 9 9 9 9 10 9 8 6 6
13 12 13 17 17 18 19 20 21 21 20 19 21 22 24 23 22 23 23 22 22 22 20 21 20 18 17 16 15 17 17 18 17 16 15 15 13 12 11 10 10 10 9 11 10 10 10 11 10 10 12 13 12 11 11 11 10 11 9 10 10 9 8
16 11 10 12 16 17 18 18 19 19 21 22 22 22 23 23 22 22 23 23 21 22 22 21 20 18 16 16 16 18 17 17 17 16 16 16 14 14 13 12 11 10 9 10 12 11 11 12 12 13 14 13 12 12 12 11 11 8 7 7 8 10 10
9 8 9 12 14 15 15 16 16 15 18 19 18 19 22 22 20 21 21 21 21 23 23 21 19 18 18 17 18 19 18 17 16 18 18 16 13 15 14 13 13 12 13 14 13 13 12 13 14 13 13 14 13 13 12 12 11 10 8 8 10 9 8
5 5 6 10 12 14 13 15 16 15 15 16 16 20 19 20 20 20 20 21 21 20 20 20 18 19 19 19 20 20 18 19 18 18 17 16 15 17 17 16 16 15 16 15 15 16 14 14 14 14 15 14 13 12 12 11 11 11 10 10 10 9 9
9 8 9 11 12 13 14 11 11 11 13 12 16 19 16 17 20 20 20 21 20 20 19 19 19 19 19 19 19 18 20 19 18 18 18 18 17 18 18 19 19 18 16 17 18 17 16 18 15 13 13 12 12 12 12 11 11 11 10 11 11 10 10
9 9 9 12 12 11 11 11 14 14 14 15 19 18 18 20 20 20 16 19 21 18 18 18 18 17 19 19 19 18 19 19 17 17 19 18 17 18 19 20 20 20 19 18 19 18 15 12 11 9 13 13 13 13 12 11 11 10 11 12 11 11 10
10 11 12 12 12 13 13 12 11 13 15 17 17 18 17 19 19 18 18 19 18 18 18 16 16 17 16 17 16 16 17 17 17 18 18 17 17 17 17 17 18 17 17 17 17 17 14 13 13 13 13 13 12 12 11 12 12 12 12 12 12 11 11
13 13 13 14 13 12 12 14 13 14 16 16 17 19 18 17 16 15 16 18 17 18 18 15 14 16 17 16 16 14 15 15 16 17 17 18 17 17 18 18 18 16 15 14 14 11 12 13 15 14 14 13 13 13 12 12 12 11 12 12 13 12 11
16 14 13 11 11 13 13 13 14 15 15 15 18 18 18 16 16 17 17 18 18 16 16 13 14 13 15 16 15 14 15 15 15 15 16 17 18 18 18 17 16 15 15 15 14 11 11 11 12 14 15 14 13 13 12 12 11 12 15 13 11 12 10
17 15 10 8 7 11 12 13 14 15 16 16 17 18 17 16 16 17 18 17 18 17 17 16 13 15 15 14 15 14 15 12 12 15 15 14 13 12 14 14 12 13 14 13 12 12 11 11 13 15 14 14 14 14 13 12 10 15 15 14 13 11 10
15 12 12 10 6 7 11 14 15 17 18 19 18 17 17 16 17 17 17 17 17 18 17 16 15 16 14 14 13 13 14 13 14 15 13 12 13 13 14 12 11 10 10 9 10 9 10 11 13 13 13 12 13 14 13 12 12 15 15 15 14 12 9
13 14 15 8 10 10 13 15 16 17 18 17 16 17 18 17 17 16 16 16 15 15 17 18 17 15 15 14 15 15 13 15 16 15 14 14 13 12 12 12 11 11 11 10 8 8 10 11 12 12 12 12 13 14 13 12 14 16 16 15 15 14 12
16 17 12 7 8 12 14 13 13 14 17 17 18 19 18 17 16 16 16 16 15 16 14 15 16 16 16 15 16 16 14 16 16 15 15 15 14 13 14 13 13 11 10 8 8 9 10 11 12 11 12 11 12 12 12 12 14 18 17 16 15 14 11
16 16 11 9 10 13 13 14 14 14 15 17 18 17 17 16 15 16 16 16 16 15 14 15 15 16 16 16 15 16 14 14 15 15 14 13 14 13 13 13 11 11 10 10 10 10 10 11 12 11 11 11 10 10 10 10 13 17 17 16 17 15 10
17 16 13 13 14 14 14 16 16 17 17 15 16 17 18 18 17 17 17 17 17 16 15 15 16 16 15 16 17 17 15 14 14 14 14 14 15 14 13 13 12 11 10 10 10 9 9 9 10 11 11 11 10 11 10 7 13 15 16 16 13 12 7
20 17 14 13 15 15 14 14 15 15 16 16 17 18 18 18 18 18 18 18 16 16 16 16 16 16 15 15 16 16 15 14 14 13 12 13 12 13 14 13 12 11 10 11 11 11 11 12 11 9 11 11 12 13 13 8 11 14 14 14 15 11 6
15 14 13 13 12 12 13 13 14 15 17 19 19 19 16 18 18 17 16 16 16 16 16 15 16 16 16 16 16 15 14 14 14 13 13 12 12 11 11 11 11 11 9 9 11 12 12 11 11 11 11 12 13 13 12 10 11 15 16 17 17 13 10
13 14 12 12 13 14 15 14 15 17 17 18 20 19 18 17 18 17 16 15 16 15 15 15 15 15 16 15 13 13 13 14 15 14 14 13 12 12 11 11 10 9 7 9 9 8 8 8 7 7 6 9 10 7 9 8 9 14 15 16 16 14 10
12 12 11 11 12 13 13 13 14 17 18 19 17 17 18 18 16 16 16 16 16 17 16 15 15 15 15 15 16 15 14 13 14 14 14 14 14 13 12 10 9 8 7 8 8 8 8 8 8 8 8 7 7 5 9 12 11 14 16 15 16 17 9
10 10 11 12 11 13 13 13 14 16 17 16 16 16 17 16 17 16 15 16 16 16 16 15 15 15 15 14 15 16 16 14 14 14 13 13 12 12 11 9 9 8 8 8 8 7 6 8 8 8 7 7 8 9 11 11 10 9 16 15 15 14 11
10 11 10 10 13 14 14 14 14 15 15 14 16 15 15 16 16 17 16 16 16 16 16 16 16 15 15 15 15 15 15 15 13 10 9 9 10 9 9 8 9 10 11 10 8 8 8 9 8 7 7 8 8 7 8 9 11 9 14 15 16 18 17
10 12 13 14 15 15 15 15 17 16 16 16 17 16 16 18 17 15 15 15 16 15 16 16 16 16 16 15 15 15 14 12 12 10 9 9 10 10 10 11 9 7 4 3 5 6 6 7 6 7 6 5 5 6 6 6 6 10 11 14 15 14 13
10 11 13 14 14 15 17 16 16 17 18 17 16 15 14 14 14 13 13 15 13 13 14 14 14 14 15 14 15 15 14 12 11 11 11 13 12 12 11 9 7 7 6 6 5 6 6 5 5 5 6 7 8 7 6 7 6 7 11 11 12 12 12
11 12 14 16 17 16 17 18 20 19 18 16 16 14 13 12 13 14 14 12 12 13 13 12 12 12 12 13 13 13 13 14 13 14 14 14 14 12 9 10 9 8 7 7 6 5 6 6 6 7 7 7 6 7 7 6 7 7 8 11 9 8 7
13 13 16 17 16 16 18 19 19 19 19 17 15 13 11 11 12 13 12 11 11 12 12 13 14 14 13 13 14 15 15 15 15 14 14 15 13 10 9 10 10 8 8 7 6 6 6 7 6 6 7 6 6 6 7 7 7 8 8 7 7 6 6
14 14 15 16 16 16 16 16 16 17 17 16 14 14 13 12 11 11 11 11 12 12 13 13 12 12 13 13 13 14 13 13 12 12 13 13 11 11 10 10 9 8 7 7 7 7 6 6 7 7 7 7 6 5 7 7 7 8 8 8 7 6 7
15 15 13 14 14 13 13 14 16 17 16 14 13 13 12 11 11 11 11 12 12 13 13 13 14 14 14 16 14 12 12 11 11 11 11 12 11 11 11 10 8 8 7 8 7 8 7 7 7 7 6 6 6 5 4 5 6 8 9 10 9 9 8
13 13 13 14 12 11 11 12 14 14 13 12 11 11 11 10 10 11 11 11 11 12 13 13 15 14 15 13 12 11 11 11 11 11 11 11 10 5 5 4 5 7 7 8 5 3 2 6 6 6 6 5 6 7 7 5 7 8 5 8 8 9 9
12 13 14 13 12 13 13 12 13 12 12 10 10 11 11 11 10 11 11 11 11 11 11 12 12 12 12 11 11 11 11 11 11 11 11 10 8 8 8 11 14 11 4 6 8 12 12 10 4 5 5 3 4 4 4 7 5 12 15 15 13 9 7
12 12 13 13 13 13 13 12 12 11 11 9 9 10 10 10 10 9 10 9 10 10 10 10 9 9 10 10 9 10 10 10 10 10 9 10 9 8 8 7 10 15 15 12 8 10 11 10 8 6 7 5 4 7 15 13 13 14 14 14 13 12 12
13 13 13 13 12 12 12 11 11 10 10 9 9 8 8 9 8 9 10 9 9 9 9 8 7 8 8 8 9 9 9 10 10 10 10 9 8 7 7 7 7 6 13 14 11 11 12 11 9 9 9 10 8 6 6 8 11 13 14 14 13 13 13
Wind_Direction
188 199 210 206 210 198 193 191 190 190 190 190 191 192 193 193 194 191 192 191 193 193 193 194 194 194 195 195 196 195 196 196 197 198 200 204 206 203 199 196 195 198 201 193 191 179 188 192 182 188 190 194 202 190 196 192 195 193 192 188 200 244 226
185 202 210 207 210 202 197 191 188 190 190 190 190 190 192 192 191 192 191 191 192 193 192 193 194 195 194 194 195 196 195 196 195 197 198 198 201 204 203 196 196 191 198 198 177 181 194 193 189 190 201 196 192 194 193 190 193 193 194 186 201 206 220
178 197 216 210 210 201 198 192 190 190 190 190 190 190 191 188 189 190 189 190 191 192 191 192 193 193 193 192 194 196 197 196 197 195 198 198 198 202 197 192 191 193 191 192 187 179 188 192 191 189 197 193 193 191 194 189 192 194 201 187 198 201 208
196 202 209 211 203 197 197 196 192 191 191 192 191 190 189 186 187 189 190 190 190 190 191 190 190 192 192 192 193 193 196 198 197 197 198 199 196 197 194 189 190 195 193 193 190 180 179 185 183 189 191 193 197 192 194 195 189 193 196 198 202 205 209
209 193 220 223 203 195 195 196 195 193 193 193 191 189 188 186 187 189 190 191 191 191 191 189 190 191 191 192 193 195 194 195 196 197 198 199 198 193 194 194 188 197 187 190 184 176 183 186 186 189 186 196 198 197 195 195 196 184 191 190 206 211 213
192 184 211 223 203 196 196 198 197 194 193 190 188 188 188 188 188 190 190 189 192 192 190 190 192 189 192 192 194 193 192 193 195 195 196 196 195 194 194 196 192 191 194 187 185 182 185 187 188 184 193 197 203 201 198 196 196 190 183 183 188 209 221
174 174 203 214 214 199 199 199 200 198 195 192 188 187 188 189 190 191 190 190 192 192 191 192 192 191 191 190 192 190 191 191 193 194 193 192 191 192 189 187 193 188 191 181 185 186 188 192 188 188 197 201 202 201 198 197 195 192 188 180 176 192 223
179 194 203 211 214 206 200 199 200 197 196 194 191 190 192 190 189 192 193 194 194 195 195 196 194 192 188 190 189 190 189 189 189 190 189 188 186 186 184 184 183 182 185 178 184 187 188 190 193 193 199 205 200 200 200 203 203 200 196 183 177 184 199
168 178 196 214 223 213 201 199 199 196 192 193 194 191 191 190 191 192 194 196 195 197 197 198 195 191 187 188 188 188 188 188 187 185 184 183 183 186 185 187 182 179 175 179 191 186 187 189 194 198 198 200 200 197 199 200 203 209 204 198 187 185 197
115 175 200 208 207 219 211 197 194 197 192 190 190 187 191 192 191 192 195 196 196 198 198 197 194 195 190 189 188 187 186 188 186 185 181 180 179 182 186 182 180 175 177 183 193 182 187 188 198 198 193 193 196 198 197 198 197 200 207 213 208 196 190
172 206 215 210 218 215 205 198 190 195 194 188 187 188 188 192 190 191 193 195 196 195 200 196 197 193 190 191 190 187 187 187 186 185 186 182 182 181 182 184 187 182 186 187 190 182 183 189 196 196 193 190 189 192 194 193 191 193 201 215 221 205 195
178 192 189 205 210 212 206 198 190 189 193 183 186 191 186 189 190 190 192 196 197 194 194 193 197 197 190 193 193 190 187 185 183 184 181 182 183 181 185 188 186 185 191 192 189 185 188 191 194 192 187 181 182 186 186 183 187 196 206 219 221 211 200
153 173 184 198 205 204 200 197 198 193 191 187 189 190 191 190 192 191 189 194 199 195 194 196 197 192 190 192 195 190 188 183 177 177 180 180 179 184 191 190 188 191 192 193 191 188 193 186 184 172 176 174 176 183 185 185 192 196 207 221 223 214 205
189 181 188 187 193 198 201 198 198 193 190 190 188 189 189 191 192 190 188 193 197 198 193 191 192 190 188 188 192 190 186 183 183 179 177 178 175 183 190 185 192 191 190 192 192 194 188 179 176 173 175 176 178 182 183 189 193 195 208 216 218 215 209
197 201 191 188 185 193 191 195 193 194 191 190 187 186 187 188 191 189 187 191 192 198 194 185 183 189 190 186 190 184 182 181 181 183 175 178 173 177 185 189 191 191 190 191 195 191 184 185 181 178 180 179 185 188 189 194 196 196 205 211 214 216 211
202 199 201 182 188 184 191 196 190 189 190 189 188 187 188 188 188 188 185 187 189 195 195 182 181 185 191 189 185 178 176 174 180 184 175 178 178 183 186 187 184 185 190 194 195 188 181 183 183 182 180 180 184 189 193 197 197 196 202 208 209 209 211
240 237 236 254 209 192 187 194 190 186 190 194 191 188 187 185 185 186 186 185 186 188 191 186 178 186 188 184 181 174 174 163 158 174 175 177 178 181 181 184 183 187 192 191 189 189 183 182 184 188 186 184 186 192 196 197 197 188 195 206 213 212 211
235 242 237 221 227 195 189 191 192 189 190 193 194 189 186 183 183 184 186 184 186 184 182 183 181 183 182 175 173 158 163 150 160 169 173 174 178 183 187 187 189 193 193 191 186 181 179 184 186 185 184 186 190 194 198 200 191 181 185 196 199 205 212
234 236 247 166 178 197 199 196 196 196 193 188 191 191 189 182 179 180 181 180 182 181 181 178 176 172 174 169 161 158 155 152 163 172 177 184 186 186 189 193 196 199 199 201 190 180 187 188 184 185 186 189 195 201 202 208 180 174 182 193 198 202 213
229 236 237 205 222 218 205 200 200 196 194 191 188 189 185 182 178 177 179 177 174 177 176 171 170 169 171 170 167 164 150 159 163 173 182 188 192 191 194 196 199 201 201 198 187 186 191 191 189 187 191 192 197 201 204 211 169 175 181 193 195 199 204
220 229 219 208 205 217 202 199 196 190 189 193 189 182 180 179 179 177 179 173 171 172 170 168 166 166 168 173 165 163 155 159 163 171 184 193 195 198 202 203 203 202 202 205 203 196 194 193 192 192 194 197 201 204 208 218 163 175 179 186 190 191 187
225 218 200 199 204 199 192 194 192 188 186 187 182 179 179 176 176 178 174 171 168 169 168 168 167 166 169 175 172 168 156 162 169 175 192 201 206 206 208 208 210 210 207 213 216 213 204 198 200 197 201 203 201 212 211 201 154 175 178 179 176 161 180
224 219 214 200 197 194 189 189 191 185 176 181 181 177 181 174 169 172 169 170 166 163 164 166 170 170 170 175 166 173 165 157 164 181 191 200 201 206 210 210 211 213 214 219 221 218 218 225 221 209 209 205 216 224 228 218 158 163 168 161 165 168 184
222 216 208 199 191 191 185 188 187 178 178 178 179 177 173 169 167 167 163 164 160 160 161 165 169 171 169 170 167 167 165 156 157 176 189 194 197 200 205 209 211 215 216 224 224 224 226 226 226 226 228 224 225 223 224 225 158 168 168 170 171 174 193
215 212 203 194 189 186 179 181 185 175 178 175 177 171 168 170 166 163 163 160 160 161 161 163 161 164 163 162 156 154 166 168 166 175 186 188 191 194 197 201 199 202 203 210 218 225 226 230 232 229 227 233 232 206 206 220 176 182 178 177 175 185 204
208 202 191 189 191 183 171 169 180 174 180 177 172 170 166 167 162 160 157 155 159 159 159 160 157 154 159 161 162 164 170 174 172 175 178 183 187 189 191 192 189 192 193 204 209 207 208 216 224 223 216 200 218 184 199 221 222 185 187 182 182 191 202
205 195 194 191 172 152 156 167 174 173 171 169 167 168 163 154 155 152 150 151 154 153 153 149 147 151 158 161 163 165 169 172 177 176 176 181 185 186 182 182 181 186 183 196 197 190 201 214 221 222 217 199 190 205 206 218 225 171 189 184 178 187 202
191 190 182 178 147 156 158 166 165 171 168 161 158 157 151 150 147 147 146 147 146 148 146 149 153 156 157 158 162 163 167 170 169 168 159 166 177 171 173 166 171 174 186 203 196 193 192 180 198 204 204 202 199 216 214 202 211 193 181 180 182 190 198
174 177 174 151 147 156 157 156 164 161 146 146 147 150 154 149 142 138 141 143 148 150 150 154 155 156 155 158 159 161 164 164 153 154 153 158 170 167 174 183 186 159 156 192 187 191 203 212 208 206 207 208 210 210 221 176 164 158 167 179 182 180 189
174 156 140 149 152 157 159 150 146 144 149 149 150 147 137 127 127 136 142 145 149 145 147 152 153 154 156 156 154 158 162 156 155 156 160 162 167 172 181 137 129 145 166 181 170 176 188 197 206 222 220 212 205 200 192 149 142 139 148 160 163 168 182
147 156 161 158 151 143 140 137 139 137 132 127 125 125 127 131 137 142 139 136 136 137 142 144 146 152 152 153 154 160 158 161 163 162 161 162 165 174 150 140 148 160 169 177 183 183 187 195 199 207 215 207 193 182 182 177 167 136 130 139 143 144 152
140 134 127 121 120 129 132 129 127 126 122 121 119 117 120 128 133 129 122 125 127 135 135 141 153 157 156 160 162 163 162 163 163 163 162 164 165 157 148 155 165 165 166 180 188 189 195 201 201 202 206 212 210 195 175 185 165 130 128 128 116 121 120
102 116 122 121 121 123 121 120 116 114 117 120 128 129 128 128 124 118 123 127 133 135 139 143 146 151 162 163 165 165 165 162 159 160 163 164 156 154 159 162 169 162 167 176 182 182 194 200 202 202 201 205 207 186 169 182 171 140 149 156 155 155 149
90 82 88 107 116 113 115 120 120 119 118 121 130 135 136 132 129 131 136 139 144 142 144 151 159 163 165 165 162 161 162 161 154 159 160 162 160 160 162 161 173 161 169 180 189 184 186 206 202 206 202 199 198 193 170 174 186 176 165 167 168 161 164
74 73 76 78 87 106 115 119 118 116 117 118 124 127 126 120 122 134 135 142 145 145 155 158 163 163 158 155 156 155 160 161 161 167 162 165 156 91 65 125 179 167 147 49 15 24 221 205 201 214 215 213 209 190 183 183 197 209 157 139 146 157 164
82 81 79 77 76 79 90 100 112 116 113 110 108 112 118 125 135 141 149 150 142 152 153 156 158 157 157 156 154 152 160 165 169 168 167 158 120 112 89 61 61 39 71 100 45 54 52 53 62 29 355 306 53 28 185 195 181 105 108 130 140 142 127
76 78 79 81 82 78 78 82 89 95 98 105 117 122 125 131 138 141 127 118 135 143 142 153 156 160 157 154 157 155 163 165 167 163 172 170 157 142 129 125 63 54 55 60 61 58 59 74 75 42 15 355 104 56 50 78 105 115 122 128 132 125 117
56 70 77 77 76 79 82 84 87 92 98 102 103 108 116 118 112 105 117 124 129 132 141 151 160 163 156 161 161 142 165 165 167 165 173 177 163 162 158 144 137 88 49 49 48 53 58 55 54 47 41 33 56 101 82 62 90 110 113 115 115 111 105